Location: Huesca
(42.1318°N, 0.4078°W)
Time: 10:50:36
(UTC+02:00)

Transit 2A Rocket - Visible Passes

Search period start: 15 July 2024 00:00
Search period end: 25 July 2024 00:00
Orbit: 582 x 910 km, 66.7° (Epoch: 14 July)

Date Brightness Start Highest point End Pass type
(mag) Time Alt. Az. Time Alt. Az. Time Alt. Az.
15 Jul 7.1 00:08:27 10° N 00:13:18 24° NE 00:17:11 13° E visible
15 Jul 5.2 01:50:23 10° NNW 01:56:29 75° WSW 01:56:57 71° SSW visible
15 Jul 7.5 03:36:18 10° W 03:36:42 10° W 03:36:42 10° W visible
15 Jul 7.5 23:24:52 10° N 23:28:39 17° NE 23:32:24 10° ENE visible
16 Jul 5.4 01:06:15 10° NNW 01:12:20 69° ENE 01:13:39 53° ESE visible
16 Jul 6.9 02:49:58 10° WNW 02:53:25 20° W 02:53:25 20° W visible
16 Jul 7.7 22:41:43 10° N 22:43:51 12° NNE 22:45:57 10° NE visible
17 Jul 6.1 00:22:14 10° NNW 00:28:03 43° NE 00:30:24 30° E visible
17 Jul 6.2 02:05:02 10° NW 02:10:10 35° WSW 02:10:10 35° WSW visible
17 Jul 6.7 23:38:23 10° NNW 23:43:36 28° NE 23:47:11 17° E visible
18 Jul 5.4 01:20:34 10° NW 01:26:34 59° WSW 01:26:58 58° SW visible
18 Jul 7.2 22:54:41 10° N 22:59:00 20° NE 23:03:16 10° E visible
19 Jul 5.2 00:36:20 10° NNW 00:42:28 85° ENE 00:43:48 57° SE visible
19 Jul 7.2 02:20:45 10° WNW 02:23:35 15° W 02:23:35 15° W visible
19 Jul 7.5 22:11:15 10° N 22:14:15 14° NNE 22:17:14 10° ENE visible
19 Jul 5.7 23:52:16 10° NNW 23:58:14 53° NE 00:00:41 33° ESE visible
20 Jul 6.5 01:35:27 10° NW 01:40:27 27° WSW 01:40:28 27° WSW visible
20 Jul 6.4 23:08:20 10° NNW 23:13:52 34° NE 23:17:36 18° ESE visible
21 Jul 5.8 00:50:48 10° NW 00:56:34 46° WSW 00:57:23 44° SW visible
21 Jul 6.9 22:24:33 10° N 22:29:19 23° NE 22:33:59 10° E visible
22 Jul 5.3 00:06:27 10° NNW 00:12:33 78° WSW 00:14:21 47° SSE visible
22 Jul 7.5 01:52:05 10° W 01:54:02 12° W 01:54:08 12° W visible
22 Jul 5.4 23:22:18 10° NNW 23:28:23 66° ENE 23:31:21 30° SE visible
23 Jul 6.9 01:05:57 10° WNW 01:10:21 21° WSW 01:11:09 21° WSW visible
23 Jul 6.1 22:38:18 10° NNW 22:44:03 41° NE 22:48:24 16° ESE visible
24 Jul 6.2 00:21:03 10° NW 00:26:32 36° WSW 00:28:11 30° SW visible
24 Jul 6.6 21:54:26 10° NNW 21:59:35 27° NE 22:04:35 10° ESE visible
24 Jul 5.6 23:36:35 10° NW 23:42:34 62° WSW 23:45:17 32° S visible
